Time,TemperatureF,DewpointF,PressureIn,WindDirection,WindDirectionDegrees,WindSpeedMPH,WindSpeedGustMPH,Humidity,HourlyPrecipIn,Conditions,Clouds,dailyrainin,SoftwareType,DateUTC
2013-02-20 00:14:00,32.6,27.0,29.68,NNW,328,5.0,11.0,81,0.00,,,0.00,weatherlink.com 1.10,2013-02-20 05:14:00,
2013-02-20 00:29:00,32.5,27.0,29.68,NNW,333,7.0,10.0,81,0.00,,,0.00,weatherlink.com 1.10,2013-02-20 05:29:00,
2013-02-20 00:44:00,32.6,27.0,29.68,NW,319,8.0,12.0,79,0.00,,,0.00,weatherlink.com 1.10,2013-02-20 05:44:00,
2013-02-20 00:59:00,32.5,27.0,29.67,NW,314,3.0,12.0,79,0.00,,,0.00,weatherlink.com 1.10,2013-02-20 05:59:00,
2013-02-20 01:14:00,32.5,26.0,29.68,NNW,330,2.0,14.0,78,0.00,,,0.00,weatherlink.com 1.10,2013-02-20 06:14:00,
2013-02-20 01:29:00,32.3,26.0,29.68,NNW,329,1.0,6.0,78,0.00,,,0.00,weatherlink.com 1.10,2013-02-20 06:29:00,
2013-02-20 01:44:00,32.3,26.0,29.69,NNW,335,5.0,8.0,78,0.00,,,0.00,weatherlink.com 1.10,2013-02-20 06:44:00,
2013-02-20 01:59:00,32.1,26.0,29.69,NW,311,6.0,14.0,78,0.00,,,0.00,weatherlink.com 1.10,2013-02-20 06:59:00,
2013-02-20 02:14:00,31.5,25.0,29.70,NNW,343,10.0,18.0,76,0.00,,,0.00,weatherlink.com 1.10,2013-02-20 07:14:00,
2013-02-20 02:29:00,31.0,24.0,29.70,NNW,343,7.0,16.0,75,0.00,,,0.00,weatherlink.com 1.10,2013-02-20 07:29:00,
2013-02-20 02:44:00,30.6,24.0,29.70,NW,311,8.0,13.0,76,0.00,,,0.00,weatherlink.com 1.10,2013-02-20 07:44:00,
2013-02-20 02:59:00,30.5,23.0,29.70,NNW,343,3.0,15.0,75,0.00,,,0.00,weatherlink.com 1.10,2013-02-20 07:59:00,
2013-02-20 03:14:00,30.6,22.0,29.70,NW,311,6.0,18.0,69,0.00,,,0.00,weatherlink.com 1.10,2013-02-20 08:14:00,
2013-02-20 03:29:00,30.4,20.0,29.71,NNW,333,9.0,22.0,66,0.00,,,0.00,weatherlink.com 1.10,2013-02-20 08:29:00,
2013-02-20 03:44:00,29.9,18.0,29.71,NNW,328,10.0,24.0,62,0.00,,,0.00,weatherlink.com 1.10,2013-02-20 08:44:00,
2013-02-20 03:59:00,29.4,18.0,29.72,WNW,293,10.0,18.0,63,0.00,,,0.00,weatherlink.com 1.10,2013-02-20 08:59:00,
2013-02-20 04:14:00,28.9,17.0,29.73,NW,322,10.0,20.0,62,0.00,,,0.00,weatherlink.com 1.10,2013-02-20 09:14:00,
2013-02-20 04:29:00,28.2,17.0,29.73,NW,322,9.0,19.0,62,0.00,,,0.00,weatherlink.com 1.10,2013-02-20 09:29:00,
2013-02-20 04:44:00,27.8,17.0,29.74,NW,320,12.0,23.0,63,0.00,,,0.00,weatherlink.com 1.10,2013-02-20 09:44:00,
2013-02-20 04:59:00,27.4,17.0,29.74,NNW,327,5.0,14.0,65,0.00,,,0.00,weatherlink.com 1.10,2013-02-20 09:59:00,
2013-02-20 05:14:00,26.9,17.0,29.74,NW,311,3.0,7.0,67,0.00,,,0.00,weatherlink.com 1.10,2013-02-20 10:14:00,
2013-02-20 05:29:00,26.7,17.0,29.75,NW,304,5.0,7.0,68,0.00,,,0.00,weatherlink.com 1.10,2013-02-20 10:29:00,
2013-02-20 05:44:00,26.6,17.0,29.74,NW,305,2.0,6.0,68,0.00,,,0.00,weatherlink.com 1.10,2013-02-20 10:44:00,
2013-02-20 05:59:00,26.6,17.0,29.74,NW,312,5.0,9.0,68,0.00,,,0.00,weatherlink.com 1.10,2013-02-20 10:59:00,
2013-02-20 06:14:00,26.5,17.0,29.75,NNW,329,8.0,13.0,68,0.00,,,0.00,weatherlink.com 1.10,2013-02-20 11:14:00,
2013-02-20 06:29:00,26.5,16.0,29.75,WNW,302,5.0,10.0,66,0.00,,,0.00,weatherlink.com 1.10,2013-02-20 11:29:00,
2013-02-20 06:45:00,26.2,16.0,29.75,NNW,333,3.0,9.0,66,0.00,,,0.00,weatherlink.com 1.10,2013-02-20 11:45:00,
2013-02-20 07:00:00,26.1,16.0,29.75,WNW,299,6.0,12.0,65,0.00,,,0.00,weatherlink.com 1.10,2013-02-20 12:00:00,
2013-02-20 07:15:00,25.7,16.0,29.76,NW,311,4.0,10.0,66,0.00,,,0.00,weatherlink.com 1.10,2013-02-20 12:15:00,
2013-02-20 07:30:00,25.9,16.0,29.76,NNW,340,7.0,14.0,66,0.00,,,0.00,weatherlink.com 1.10,2013-02-20 12:30:00,
2013-02-20 07:45:00,26.2,16.0,29.77,West,262,4.0,14.0,66,0.00,,,0.00,weatherlink.com 1.10,2013-02-20 12:45:00,
2013-02-20 08:00:00,26.5,16.0,29.77,WNW,300,8.0,19.0,64,0.00,,,0.00,weatherlink.com 1.10,2013-02-20 13:00:00,
2013-02-20 08:15:00,26.6,16.0,29.77,NNW,345,10.0,14.0,64,0.00,,,0.00,weatherlink.com 1.10,2013-02-20 13:15:00,
2013-02-20 08:30:00,26.8,16.0,29.77,NNW,328,9.0,16.0,63,0.00,,,0.00,weatherlink.com 1.10,2013-02-20 13:30:00,
2013-02-20 08:45:00,27.8,15.0,29.77,NNW,341,10.0,12.0,60,0.00,,,0.00,weatherlink.com 1.10,2013-02-20 13:45:00,
2013-02-20 09:00:00,27.6,14.0,29.78,NW,311,6.0,15.0,58,0.00,,,0.00,weatherlink.com 1.10,2013-02-20 14:00:00,
2013-02-20 09:15:00,27.9,15.0,29.77,NW,314,5.0,17.0,59,0.00,,,0.00,weatherlink.com 1.10,2013-02-20 14:15:00,
2013-02-20 09:30:00,28.3,14.0,29.77,NW,311,16.0,20.0,55,0.00,,,0.00,weatherlink.com 1.10,2013-02-20 14:30:00,
2013-02-20 09:45:00,28.6,13.0,29.77,NW,320,11.0,17.0,53,0.00,,,0.00,weatherlink.com 1.10,2013-02-20 14:45:00,
2013-02-20 10:00:00,29.0,12.0,29.77,NW,304,5.0,18.0,49,0.00,,,0.00,weatherlink.com 1.10,2013-02-20 15:00:00,
2013-02-20 10:15:00,29.6,11.0,29.77,NW,315,13.0,19.0,47,0.00,,,0.00,weatherlink.com 1.10,2013-02-20 15:15:00,
2013-02-20 10:30:00,29.1,12.0,29.77,NNW,337,9.0,30.0,48,0.00,,,0.00,weatherlink.com 1.10,2013-02-20 15:30:00,
2013-02-20 10:45:00,29.2,12.0,29.77,WSW,249,9.0,15.0,48,0.00,,,0.00,weatherlink.com 1.10,2013-02-20 15:45:00,
2013-02-20 11:00:00,29.5,12.0,29.77,West,264,4.0,25.0,49,0.00,,,0.00,weatherlink.com 1.10,2013-02-20 16:00:00,
2013-02-20 11:15:00,29.2,11.0,29.77,West,281,4.0,25.0,47,0.00,,,0.00,weatherlink.com 1.10,2013-02-20 16:15:00,
2013-02-20 11:45:00,29.4,10.0,29.77,NNW,332,8.0,26.0,45,0.00,,,0.00,weatherlink.com 1.10,2013-02-20 16:45:00,
2013-02-20 12:00:00,29.3,11.0,29.76,WSW,257,9.0,20.0,47,0.00,,,0.00,weatherlink.com 1.10,2013-02-20 17:00:00,
2013-02-20 12:15:00,28.9,10.0,29.76,North,351,7.0,24.0,45,0.00,,,0.00,weatherlink.com 1.10,2013-02-20 17:15:00,
2013-02-20 12:30:00,28.6,11.0,29.76,WNW,302,7.0,21.0,47,0.00,,,0.00,weatherlink.com 1.10,2013-02-20 17:30:00,
2013-02-20 12:45:00,28.8,11.0,29.75,West,263,3.0,22.0,47,0.00,,,0.00,weatherlink.com 1.10,2013-02-20 17:45:00,
2013-02-20 13:00:00,29.0,11.0,29.75,NW,316,17.0,24.0,47,0.00,,,0.00,weatherlink.com 1.10,2013-02-20 18:00:00,
2013-02-20 13:15:00,29.4,11.0,29.76,WNW,300,7.0,21.0,46,0.00,,,0.00,weatherlink.com 1.10,2013-02-20 18:15:00,
2013-02-20 13:30:00,28.8,10.0,29.76,NW,307,16.0,24.0,46,0.00,,,0.00,weatherlink.com 1.10,2013-02-20 18:30:00,
2013-02-20 13:45:00,28.6,10.0,29.77,NW,305,15.0,23.0,45,0.00,,,0.00,weatherlink.com 1.10,2013-02-20 18:45:00,
2013-02-20 14:00:00,28.8,10.0,29.76,NW,305,12.0,23.0,46,0.00,,,0.00,weatherlink.com 1.10,2013-02-20 19:00:00,
2013-02-20 14:15:00,29.0,10.0,29.77,NNW,339,11.0,23.0,46,0.00,,,0.00,weatherlink.com 1.10,2013-02-20 19:15:00,
2013-02-20 14:30:00,28.5,10.0,29.78,WNW,288,13.0,20.0,47,0.00,,,0.00,weatherlink.com 1.10,2013-02-20 19:30:00,
2013-02-20 14:45:00,28.3,11.0,29.78,NNW,345,13.0,25.0,48,0.00,,,0.00,weatherlink.com 1.10,2013-02-20 19:45:00,
2013-02-20 15:00:00,28.4,10.0,29.79,NNW,345,9.0,24.0,47,0.00,,,0.00,weatherlink.com 1.10,2013-02-20 20:00:00,
2013-02-20 15:15:00,29.6,11.0,29.79,West,273,8.0,19.0,45,0.00,,,0.00,weatherlink.com 1.10,2013-02-20 20:15:00,
2013-02-20 15:30:00,29.0,10.0,29.79,WNW,290,9.0,21.0,45,0.00,,,0.00,weatherlink.com 1.10,2013-02-20 20:30:00,
2013-02-20 15:45:00,28.3,9.0,29.80,NW,318,10.0,22.0,45,0.00,,,0.00,weatherlink.com 1.10,2013-02-20 20:45:00,
2013-02-20 16:00:00,28.1,10.0,29.81,NW,305,7.0,23.0,46,0.00,,,0.00,weatherlink.com 1.10,2013-02-20 21:00:00,
2013-02-20 16:15:00,27.6,11.0,29.82,NW,318,17.0,19.0,50,0.00,,,0.00,weatherlink.com 1.10,2013-02-20 21:15:00,
2013-02-20 16:31:00,27.2,11.0,29.82,NNW,330,5.0,25.0,50,0.00,,,0.00,weatherlink.com 1.10,2013-02-20 21:31:00,
2013-02-20 16:46:00,26.9,11.0,29.82,WNW,295,7.0,18.0,52,0.00,,,0.00,weatherlink.com 1.10,2013-02-20 21:46:00,
2013-02-20 17:01:00,26.5,12.0,29.82,WNW,302,7.0,20.0,54,0.00,,,0.00,weatherlink.com 1.10,2013-02-20 22:01:00,
2013-02-20 17:16:00,26.2,12.0,29.82,NW,323,14.0,20.0,56,0.00,,,0.00,weatherlink.com 1.10,2013-02-20 22:16:00,
2013-02-20 17:31:00,25.9,12.0,29.83,NW,315,11.0,19.0,56,0.00,,,0.00,weatherlink.com 1.10,2013-02-20 22:31:00,
2013-02-20 17:46:00,25.6,13.0,29.83,NW,304,8.0,19.0,58,0.00,,,0.00,weatherlink.com 1.10,2013-02-20 22:46:00,
2013-02-20 18:01:00,25.3,12.0,29.84,WNW,295,10.0,22.0,58,0.00,,,0.00,weatherlink.com 1.10,2013-02-20 23:01:00,
2013-02-20 18:16:00,25.2,13.0,29.85,NNW,330,4.0,10.0,59,0.00,,,0.00,weatherlink.com 1.10,2013-02-20 23:16:00,
2013-02-20 18:31:00,25.0,12.0,29.85,NNW,329,11.0,17.0,58,0.00,,,0.00,weatherlink.com 1.10,2013-02-20 23:31:00,
2013-02-20 18:46:00,25.0,12.0,29.86,NW,315,8.0,15.0,58,0.00,,,0.00,weatherlink.com 1.10,2013-02-20 23:46:00,
2013-02-20 19:01:00,24.9,12.0,29.86,NW,311,9.0,17.0,59,0.00,,,0.00,weatherlink.com 1.10,2013-02-21 00:01:00,
2013-02-20 19:16:00,24.7,12.0,29.86,NE,41,0.0,8.0,59,0.00,,,0.00,weatherlink.com 1.10,2013-02-21 00:16:00,
2013-02-20 19:31:00,24.4,13.0,29.86,West,276,3.0,14.0,61,0.00,,,0.00,weatherlink.com 1.10,2013-02-21 00:31:00,
2013-02-20 19:46:00,24.3,13.0,29.86,NNW,327,5.0,7.0,62,0.00,,,0.00,weatherlink.com 1.10,2013-02-21 00:46:00,
2013-02-20 20:01:00,24.5,13.0,29.86,NE,49,0.0,14.0,62,0.00,,,0.00,weatherlink.com 1.10,2013-02-21 01:01:00,
2013-02-20 20:16:00,24.6,13.0,29.85,WNW,302,10.0,16.0,62,0.00,,,0.00,weatherlink.com 1.10,2013-02-21 01:16:00,
2013-02-20 20:31:00,24.7,14.0,29.85,NNW,329,10.0,17.0,63,0.00,,,0.00,weatherlink.com 1.10,2013-02-21 01:31:00,
2013-02-20 20:46:00,24.7,14.0,29.86,SSW,195,6.0,15.0,63,0.00,,,0.00,weatherlink.com 1.10,2013-02-21 01:46:00,
2013-02-20 21:01:00,24.7,14.0,29.87,SW,229,9.0,17.0,63,0.00,,,0.00,weatherlink.com 1.10,2013-02-21 02:01:00,
2013-02-20 21:16:00,24.8,14.0,29.88,NNE,33,4.0,10.0,64,0.00,,,0.00,weatherlink.com 1.10,2013-02-21 02:16:00,
2013-02-20 21:31:00,25.0,14.0,29.89,NW,305,6.0,15.0,64,0.00,,,0.00,weatherlink.com 1.10,2013-02-21 02:31:00,
2013-02-20 21:46:00,25.1,15.0,29.90,NW,315,10.0,13.0,65,0.00,,,0.00,weatherlink.com 1.10,2013-02-21 02:46:00,
2013-02-20 22:01:00,25.1,15.0,29.90,NW,304,8.0,20.0,66,0.00,,,0.00,weatherlink.com 1.10,2013-02-21 03:01:00,
2013-02-20 22:16:00,25.0,15.0,29.90,NW,326,11.0,22.0,66,0.00,,,0.00,weatherlink.com 1.10,2013-02-21 03:16:00,
2013-02-20 22:31:00,24.8,15.0,29.90,NW,315,13.0,24.0,66,0.00,,,0.00,weatherlink.com 1.10,2013-02-21 03:31:00,
2013-02-20 22:46:00,24.9,15.0,29.89,NW,307,6.0,20.0,66,0.00,,,0.00,weatherlink.com 1.10,2013-02-21 03:46:00,
2013-02-20 23:01:00,24.7,15.0,29.90,NNW,340,5.0,19.0,66,0.00,,,0.00,weatherlink.com 1.10,2013-02-21 04:01:00,
2013-02-20 23:16:00,24.8,15.0,29.91,NE,55,6.0,17.0,66,0.00,,,0.00,weatherlink.com 1.10,2013-02-21 04:16:00,
2013-02-20 23:31:00,25.0,15.0,29.91,NW,304,6.0,19.0,67,0.00,,,0.00,weatherlink.com 1.10,2013-02-21 04:31:00,
2013-02-20 23:46:00,25.0,15.0,29.91,NW,304,6.0,16.0,67,0.00,,,0.00,weatherlink.com 1.10,2013-02-21 04:46:00,